LPA228 UWWW-UUBW

Flight info

Callsign LPA228
Flight time N/A
Altitude 38000
Route REDMI T750 OKSUD T787 URAGO URAGO2B
Aircraft A388/J-SADE2E3FGHIJ3J4J5M1RWXY/LB1D1

Departure

Time 2026-04-30 18:24
Airport Kurumoch International Airport (UWWW)

Arrival

Time N/A
Airport Zhukovsky International Airport (UUBW)
Time Latitude Longitude Altitude Speed Heading
2026-04-30 17:53 53.50849 50.15325 455 ft 0 kts 147°
2026-04-30 18:16 53.50831 50.15349 455 ft 4 kts 122°
2026-04-30 18:17 53.50822 50.15417 454 ft 7 kts 79°
2026-04-30 18:17 53.50852 50.15526 452 ft 13 kts 62°
2026-04-30 18:17 53.50960 50.15871 446 ft 20 kts 62°
2026-04-30 18:18 53.51020 50.16062 427 ft 19 kts 62°
2026-04-30 18:18 53.51074 50.16248 432 ft 18 kts 71°
2026-04-30 18:18 53.51054 50.16452 428 ft 19 kts 120°
2026-04-30 18:18 53.50980 50.16653 425 ft 21 kts 122°
2026-04-30 18:19 53.50899 50.16874 429 ft 22 kts 121°
2026-04-30 18:19 53.50806 50.17052 434 ft 18 kts 153°
2026-04-30 18:19 53.50700 50.17113 449 ft 15 kts 160°
2026-04-30 18:19 53.50607 50.17169 454 ft 14 kts 160°
2026-04-30 18:20 53.50516 50.17223 459 ft 14 kts 160°
2026-04-30 18:20 53.50422 50.17279 462 ft 14 kts 160°
2026-04-30 18:20 53.50326 50.17337 466 ft 15 kts 160°
2026-04-30 18:20 53.50225 50.17398 469 ft 16 kts 160°
2026-04-30 18:21 53.50119 50.17461 470 ft 17 kts 160°
2026-04-30 18:21 53.50008 50.17527 470 ft 17 kts 160°
2026-04-30 18:21 53.49820 50.17640 476 ft 35 kts 160°
2026-04-30 18:21 53.49605 50.17768 483 ft 31 kts 160°
2026-04-30 18:22 53.49415 50.17882 487 ft 26 kts 160°
2026-04-30 18:22 53.49285 50.18160 490 ft 16 kts 77°
2026-04-30 18:22 53.49337 50.18318 487 ft 15 kts 19°
2026-04-30 18:23 53.49425 50.18298 488 ft 12 kts 341°
2026-04-30 18:23 53.49452 50.18282 487 ft 15 kts 342°
2026-04-30 18:23 53.49857 50.18047 476 ft 105 kts 340°
2026-04-30 18:23 53.50764 50.17510 465 ft 164 kts 341°
2026-04-30 18:24 53.52885 50.16277 1854 ft 156 kts 345°
2026-04-30 18:24 53.53938 50.15694 2441 ft 166 kts 345°
2026-04-30 18:24 53.55089 50.15037 2803 ft 183 kts 343°
2026-04-30 18:25 53.56364 50.14274 3047 ft 208 kts 342°
2026-04-30 18:25 53.59353 50.12415 4019 ft 250 kts 339°
2026-04-30 18:25 53.60868 50.10834 4693 ft 262 kts 315°
2026-04-30 18:26 53.62770 50.05578 6524 ft 266 kts 298°
2026-04-30 18:26 53.63663 50.02831 7374 ft 269 kts 298°
2026-04-30 18:26 53.64579 50.00042 8196 ft 274 kts 297°
2026-04-30 18:27 53.66447 49.94348 9878 ft 282 kts 297°
2026-04-30 18:27 53.67390 49.91464 10518 ft 292 kts 296°
2026-04-30 18:28 53.69482 49.85023 11026 ft 331 kts 296°
2026-04-30 18:28 53.70595 49.81604 11719 ft 334 kts 296°
2026-04-30 18:28 53.72858 49.74647 13156 ft 341 kts 296°
2026-04-30 18:29 53.74003 49.71118 13881 ft 344 kts 295°
2026-04-30 18:29 53.77498 49.60293 15771 ft 355 kts 294°
2026-04-30 18:30 53.79474 49.54151 16797 ft 360 kts 294°
2026-04-30 18:30 53.81889 49.46622 17977 ft 367 kts 293°
2026-04-30 18:31 53.83111 49.42802 18545 ft 371 kts 293°
2026-04-30 18:31 53.85583 49.35065 19606 ft 375 kts 293°
2026-04-30 18:32 53.88077 49.27232 20665 ft 380 kts 292°
2026-04-30 18:32 53.89333 49.23277 21175 ft 382 kts 292°
2026-04-30 18:32 53.91806 49.15467 22139 ft 387 kts 292°
2026-04-30 18:33 53.93082 49.11428 22635 ft 390 kts 292°
2026-04-30 18:33 53.95825 49.03391 23567 ft 399 kts 297°
2026-04-30 18:33 53.97352 48.99432 23981 ft 402 kts 297°
2026-04-30 18:34 53.98885 48.95438 24334 ft 405 kts 297°
2026-04-30 18:34 54.01982 48.87322 25089 ft 412 kts 296°
2026-04-30 18:34 54.03544 48.83214 25522 ft 415 kts 296°
2026-04-30 18:35 54.05117 48.79068 25934 ft 419 kts 296°
2026-04-30 18:35 54.06703 48.74879 26334 ft 422 kts 296°
2026-04-30 18:35 54.08297 48.70662 26770 ft 426 kts 296°
2026-04-30 18:36 54.11507 48.62153 27642 ft 433 kts 296°
2026-04-30 18:36 54.13137 48.57819 28108 ft 437 kts 296°
2026-04-30 18:36 54.16442 48.49011 29006 ft 444 kts 295°
2026-04-30 18:37 54.18112 48.44548 29475 ft 448 kts 295°
2026-04-30 18:37 54.19812 48.39998 30158 ft 448 kts 296°
2026-04-30 18:37 54.21470 48.35555 30555 ft 452 kts 296°
2026-04-30 18:37 54.23185 48.30947 30921 ft 456 kts 296°
2026-04-30 18:38 54.24869 48.26412 31298 ft 459 kts 296°
2026-04-30 18:38 54.26587 48.21781 31684 ft 463 kts 296°
2026-04-30 18:38 54.28277 48.17072 32055 ft 466 kts 295°
2026-04-30 18:38 54.29934 48.12296 32419 ft 469 kts 295°
2026-04-30 18:39 54.31600 48.07460 32793 ft 473 kts 295°
2026-04-30 18:39 54.33281 48.02589 33165 ft 477 kts 295°
2026-04-30 18:39 54.34977 47.97682 33544 ft 481 kts 296°
2026-04-30 18:39 54.36688 47.92741 33923 ft 484 kts 297°
2026-04-30 18:40 54.38416 47.87749 34253 ft 488 kts 297°
2026-04-30 18:40 54.40153 47.82722 34585 ft 491 kts 297°
2026-04-30 18:40 54.41897 47.77664 34918 ft 494 kts 297°
2026-04-30 18:40 54.43651 47.72567 35319 ft 495 kts 297°
2026-04-30 18:41 54.45399 47.67477 35744 ft 495 kts 297°
2026-04-30 18:41 54.47144 47.62382 36181 ft 495 kts 297°
2026-04-30 18:41 54.48890 47.57275 36606 ft 495 kts 297°
2026-04-30 18:41 54.50632 47.52166 37025 ft 495 kts 297°
2026-04-30 18:42 54.52372 47.47054 37433 ft 495 kts 297°
2026-04-30 18:42 54.55852 47.36794 38121 ft 499 kts 297°
2026-04-30 18:42 54.57612 47.31588 38105 ft 500 kts 297°
2026-04-30 18:45 54.76196 46.75269 38116 ft 498 kts 296°
2026-04-30 18:46 54.79561 46.64780 38127 ft 498 kts 296°
2026-04-30 18:46 54.83289 46.54643 38119 ft 501 kts 305°
2026-04-30 18:47 54.87628 46.45157 38119 ft 502 kts 305°
2026-04-30 18:47 54.91934 46.35607 38122 ft 502 kts 305°
2026-04-30 18:48 54.96236 46.26055 38140 ft 502 kts 306°
2026-04-30 18:48 55.00523 46.16514 38121 ft 502 kts 306°
2026-04-30 18:49 55.04819 46.06922 38123 ft 502 kts 306°
2026-04-30 18:49 55.09104 45.97315 38121 ft 502 kts 306°
2026-04-30 18:50 55.13382 45.87685 38124 ft 502 kts 305°
2026-04-30 18:50 55.17656 45.78026 38126 ft 502 kts 306°
2026-04-30 18:51 55.21920 45.68353 38125 ft 502 kts 306°
2026-04-30 18:51 55.26148 45.58724 38124 ft 501 kts 306°
2026-04-30 18:52 55.30394 45.49016 38122 ft 501 kts 306°
2026-04-30 18:52 55.34629 45.39292 38131 ft 501 kts 306°
2026-04-30 18:53 55.38834 45.29599 38136 ft 500 kts 306°
2026-04-30 18:53 55.43047 45.19852 38131 ft 500 kts 306°
2026-04-30 18:54 55.47251 45.10086 38130 ft 500 kts 305°
2026-04-30 18:54 55.51442 45.00310 38136 ft 499 kts 306°
2026-04-30 18:55 55.55076 44.90054 38132 ft 496 kts 292°
2026-04-30 18:55 55.56979 44.78982 38126 ft 493 kts 278°
2026-04-30 18:55 55.57312 44.72970 38125 ft 491 kts 271°
2026-04-30 18:56 55.57779 44.54893 38135 ft 491 kts 272°
2026-04-30 18:57 55.58228 44.36803 38117 ft 492 kts 272°
2026-04-30 18:57 55.58502 44.24709 38126 ft 492 kts 271°
2026-04-30 18:58 55.58892 44.06542 38129 ft 494 kts 271°
2026-04-30 18:59 55.59254 43.88421 38150 ft 494 kts 271°
2026-04-30 19:00 55.59537 43.64129 38164 ft 494 kts 270°
2026-04-30 19:01 55.59552 43.39806 38155 ft 495 kts 270°
2026-04-30 19:02 55.59560 43.28415 38157 ft 495 kts 270°